Regional Weather Roundup
Issued by NWS

Home | Current Version | Previous Version | Graphics & Text | Print | Product List | Glossary On
Versions: 1 2 3 4 5 6 7 8 9 10 11 12 13 14 15 16 17 18 19 20 21 22 23 24 25 26 27 28 29 30 31 32 33 34 35 36 37 38 39 40 41 42 43 44 45 46 47 48 49 50
000
ASUS43 KFSD 291002
RWRSD

WEATHER ROUNDUP FOR SOUTH DAKOTA
NATIONAL WEATHER SERVICE SIOUX FALLS SD
500 AM CDT SUN MAR 29 2015

NOTE: "FAIR" INDICATES FEW OR NO CLOUDS BELOW 12,000 FEET WITH NO
SIGNIFICANT WEATHER AND/OR OBSTRUCTIONS TO VISIBILITY.


SDZ001>005-009-010-012>017-291100-
NORTHWEST AND NORTH CENTRAL SOUTH DAKOTA

CITY           SKY/WX    TMP DP  RH WIND       PRES   REMARKS
BUFFALO          N/A     42  36  79 NW43G51   29.89R
FAITH            N/A     43  37  79 NW36G59   29.85R
MOBRIDGE       LGT RAIN  46  40  79 NW23G38   29.68R
$$

SDZ012>016-024>037-041>051-057-063-072>074-291100-
SOUTHWEST AND SOUTH CENTRAL SOUTH DAKOTA

CITY           SKY/WX    TMP DP  RH WIND       PRES   REMARKS
RAPID CTY ARPT PTCLDY    46  31  55 NW49G63   29.94R
PIERRE         CLOUDY    51  35  54 W40G59    29.76S
CUSTER         PTCLDY    38  25  59 NW16G37   29.98S
ELLSWORTH AFB  DRIZZLE   46  31  57 NW46G63   29.93
PHILIP         CLOUDY    49  34  56 NW39G54   29.88R
PINE RIDGE     CLEAR     48  19  31 NW15G24   30.00R
SPEARFISH      MIX PCPN  41  30  65 NW29G44   30.10R
WINNER         FAIR      47  31  53 W16       29.82F
$$

SDZ004>011-016>023-039-040-291100-
NORTHEAST SOUTH DAKOTA

CITY           SKY/WX    TMP DP  RH WIND       PRES   REMARKS
ABERDEEN       CLEAR     46  38  73 W17       29.61S
WATERTOWN      CLEAR     44  36  73 W17       29.61F
SISSETON         N/A     49  40  71 W20       29.53F
$$

SDZ017-020-022-023-036>040-048>070-291100-
SOUTHEAST SOUTH DAKOTA

CITY           SKY/WX    TMP DP  RH WIND       PRES   REMARKS
SIOUX FALLS    PTCLDY    43  34  70 W6        29.68R
HURON          CLEAR     45  37  73 W15       29.68S
MITCHELL       CLEAR     50  39  66 W17       29.72R
YANKTON        CLEAR     54  43  66 W14G20    29.76R
$$

ABBREVIATIONS USED IN REMARKS
   TC - TEMPERATURE IN CELSIUS
  WCI - WIND CHILL INDEX
   HX - HEAT INDEX
  VSB - VISIBILITY



USA.gov is the U.S. government's official web portal to all federal, state and local government web resources and services.